This demonstration page uses our WeatherBlox Daily Observations layout. Learn more.

Left ArrowRight Arrow

Hourly Observations for October 24, 2021

Temp ( °F °C ) Dew Point ( °F °C ) Humidity (%) Winds ( mph kmh ) Pressure ( in mb ) Visibility ( mi km ) Precip ( " mm )
12:53 am 00:53 Clear 50 10 48 8.9 93 93 Calm 30.06 1018 10 16 0.00 0.00
1:53 am 01:53 Clear 50 10 49 9.4 96 96 Calm 30.06 1018 8 13 0.00 0.00
2:53 am 02:53 Clear 49 9.4 47 8.3 93 93 Calm 30.07 1018 8 13 0.00 0.00
3:53 am 03:53 Clear 49 9.4 47 8.3 93 93 Calm 30.08 1019 10 16 0.00 0.00
4:53 am 04:53 Clear 48 8.9 46 7.8 93 93 SSE 3 6 30.08 1019 10 16 0.00 0.00
5:53 am 05:53 Clear 47 8.3 46 7.8 97 97 Calm 30.09 1019 10 16 0.00 0.00
6:53 am 06:53 Clear 47 8.3 45 7.2 93 93 Calm 30.10 1019 10 16 0.00 0.00
7:53 am 07:53 Sunny 46 7.8 44 6.7 93 93 Calm 30.11 1020 8 13 0.00 0.00
8:53 am 08:53 Sunny with Light Rain 49 9.4 47 8.3 93 93 Calm 30.13 1020 10 16 0.00 0.00
9:53 am 09:53 Sunny 55 12.8 52 11.1 90 90 NE 3 6 30.12 1020 10 16 0.00 0.00
10:53 am 10:53 Sunny 61 16.1 54 12.2 78 78 Calm 30.12 1020 10 16 0.00 0.00
11:53 am 11:53 Sunny 70 21.1 56 13.3 61 61 Calm 30.12 1020 10 16 0.00 0.00
12:53 pm 12:53 Mostly Sunny 72 22.2 51 10.6 48 48 S 6 9 30.11 1020 10 16 0.00 0.00
1:53 pm 13:53 Sunny 75 23.9 52 11.1 45 45 SSW 9 15 30.08 1019 10 16 0.00 0.00
2:53 pm 14:53 Sunny 75 23.9 52 11.1 45 45 SSW 3 6 30.06 1018 10 16 0.00 0.00
3:53 pm 15:53 Sunny 76 24.4 47 8.3 36 36 VRB 6 9 30.06 1018 10 16 0.00 0.00
4:53 pm 16:53 Sunny 76 24.4 48 8.9 37 37 ESE 3 6 30.05 1018 10 16 0.00 0.00
5:53 pm 17:53 Sunny 73 22.8 52 11.1 48 48 SSE 5 7 30.05 1018 10 16 0.00 0.00
6:53 pm 18:53 Sunny 70 21.1 54 12.2 57 57 SE 3 6 30.05 1018 10 16 0.00 0.00
7:53 pm 19:53 Clear 68 20 54 12.2 61 61 SE 3 6 30.06 1018 10 16 0.00 0.00
8:53 pm 20:53 Clear 63 17.2 56 13.3 78 78 Calm 30.06 1018 10 16 0.00 0.00
9:53 pm 21:53 Clear 68 20 54 12.2 61 61 ESE 5 7 30.04 1017 10 16 0.00 0.00
10:53 pm 22:53 Clear 62 16.7 56 13.3 80 80 Calm 30.06 1018 10 16 0.00 0.00
11:53 pm 23:53 Clear 61 16.1 56 13.3 84 84 Calm 30.04 1017 10 16 0.00 0.00

Powered by AerisWeather